Year,Month,Day,Hour,Minute,Value (Times are PST for temperature in C)
2017,07,17,00,00,14.30
2017,07,17,00,01,14.30
2017,07,17,00,02,14.30
2017,07,17,00,03,14.20
2017,07,17,00,04,14.20
2017,07,17,00,05,14.20
2017,07,17,00,06,14.20
2017,07,17,00,07,14.20
2017,07,17,00,08,14.20
2017,07,17,00,09,14.20
2017,07,17,00,10,14.20
2017,07,17,00,11,14.20
2017,07,17,00,12,14.20
2017,07,17,00,13,14.20
2017,07,17,00,14,14.20
2017,07,17,00,15,14.20
2017,07,17,00,16,14.20
2017,07,17,00,17,14.20
2017,07,17,00,18,14.30
2017,07,17,00,19,14.30
2017,07,17,00,20,14.30
2017,07,17,00,21,14.30
2017,07,17,00,22,14.30
2017,07,17,00,23,14.30
2017,07,17,00,24,14.40
2017,07,17,00,25,14.40
2017,07,17,00,26,14.40
2017,07,17,00,27,14.40
2017,07,17,00,28,14.40
2017,07,17,00,29,14.40
2017,07,17,00,30,14.40
2017,07,17,00,31,14.40
2017,07,17,00,32,14.40
2017,07,17,00,33,14.30
2017,07,17,00,34,14.30
2017,07,17,00,35,14.30
2017,07,17,00,36,14.30
2017,07,17,00,37,14.30
2017,07,17,00,38,14.30
2017,07,17,00,39,14.30
2017,07,17,00,40,14.30
2017,07,17,00,41,14.30
2017,07,17,00,42,14.30
2017,07,17,00,43,14.30
2017,07,17,00,44,14.30
2017,07,17,00,45,14.30
2017,07,17,00,46,14.30
2017,07,17,00,47,14.20
2017,07,17,00,48,14.20
2017,07,17,00,49,14.20
2017,07,17,00,50,14.20
2017,07,17,00,51,14.20
2017,07,17,00,52,14.10
2017,07,17,00,53,14.10
2017,07,17,00,54,14.10
2017,07,17,00,55,14.00
2017,07,17,00,56,14.00
2017,07,17,00,57,13.90
2017,07,17,00,58,13.90
2017,07,17,00,59,13.90
2017,07,17,01,00,13.80
2017,07,17,01,01,13.80
2017,07,17,01,02,13.80
2017,07,17,01,03,13.80
2017,07,17,01,04,13.70
2017,07,17,01,05,13.70
2017,07,17,01,06,13.70
2017,07,17,01,07,13.70
2017,07,17,01,08,13.60
2017,07,17,01,09,13.60
2017,07,17,01,10,13.60
2017,07,17,01,11,13.60
2017,07,17,01,12,13.50
2017,07,17,01,13,13.50
2017,07,17,01,14,13.40
2017,07,17,01,15,13.40
2017,07,17,01,16,13.40
2017,07,17,01,17,13.40
2017,07,17,01,18,13.30
2017,07,17,01,19,13.30
2017,07,17,01,20,13.20
2017,07,17,01,21,13.20
2017,07,17,01,22,13.20
2017,07,17,01,23,13.10
2017,07,17,01,24,13.10
2017,07,17,01,25,13.10
2017,07,17,01,26,13.00
2017,07,17,01,27,13.00
2017,07,17,01,28,13.00
2017,07,17,01,29,12.90
2017,07,17,01,30,12.90
2017,07,17,01,31,12.80
2017,07,17,01,32,12.80
2017,07,17,01,33,12.80
2017,07,17,01,34,12.80
2017,07,17,01,35,12.80
2017,07,17,01,36,12.80
2017,07,17,01,37,12.80
2017,07,17,01,38,12.70
2017,07,17,01,39,12.70
2017,07,17,01,40,12.70
2017,07,17,01,41,12.70
2017,07,17,01,42,12.70
2017,07,17,01,43,12.70
2017,07,17,01,44,12.70
2017,07,17,01,45,12.70
2017,07,17,01,46,12.70
2017,07,17,01,47,12.70
2017,07,17,01,48,12.70
2017,07,17,01,49,12.70
2017,07,17,01,50,12.70
2017,07,17,01,51,12.70
2017,07,17,01,52,12.70
2017,07,17,01,53,12.60
2017,07,17,01,54,12.60
2017,07,17,01,55,12.60
2017,07,17,01,56,12.60
2017,07,17,01,57,12.60
2017,07,17,01,58,12.60
2017,07,17,01,59,12.60
2017,07,17,02,00,12.60
2017,07,17,02,01,12.50
2017,07,17,02,02,12.50
2017,07,17,02,03,12.50
2017,07,17,02,04,12.50
2017,07,17,02,05,12.40
2017,07,17,02,06,12.40
2017,07,17,02,07,12.40
2017,07,17,02,08,12.30
2017,07,17,02,09,12.30
2017,07,17,02,10,12.30
2017,07,17,02,11,12.30
2017,07,17,02,12,12.20
2017,07,17,02,13,12.20
2017,07,17,02,14,12.20
2017,07,17,02,15,12.20
2017,07,17,02,16,12.10
2017,07,17,02,17,12.10
2017,07,17,02,18,12.10
2017,07,17,02,19,12.10
2017,07,17,02,20,12.10
2017,07,17,02,21,12.10
2017,07,17,02,22,12.10
2017,07,17,02,23,12.10
2017,07,17,02,24,12.10
2017,07,17,02,25,12.10
2017,07,17,02,26,12.10
2017,07,17,02,27,12.10
2017,07,17,02,28,12.10
2017,07,17,02,29,12.10
2017,07,17,02,30,12.10
2017,07,17,02,31,12.10
2017,07,17,02,32,12.10
2017,07,17,02,33,12.10
2017,07,17,02,34,12.00
2017,07,17,02,35,12.00
2017,07,17,02,36,12.00
2017,07,17,02,37,12.00
2017,07,17,02,38,11.90
2017,07,17,02,39,11.90
2017,07,17,02,40,11.90
2017,07,17,02,41,11.90
2017,07,17,02,42,11.90
2017,07,17,02,43,11.90
2017,07,17,02,44,11.90
2017,07,17,02,45,11.80
2017,07,17,02,46,11.80
2017,07,17,02,47,11.80
2017,07,17,02,48,11.80
2017,07,17,02,49,11.80
2017,07,17,02,50,11.80
2017,07,17,02,51,11.80
2017,07,17,02,52,11.80
2017,07,17,02,53,11.80
2017,07,17,02,54,11.80
2017,07,17,02,55,11.80
2017,07,17,02,56,11.70
2017,07,17,02,57,11.70
2017,07,17,02,58,11.70
2017,07,17,02,59,11.70
2017,07,17,03,00,11.70
2017,07,17,03,01,11.70
2017,07,17,03,02,11.70
2017,07,17,03,03,11.70
2017,07,17,03,04,11.70
2017,07,17,03,05,11.70
2017,07,17,03,06,11.70
2017,07,17,03,07,11.70
2017,07,17,03,08,11.70
2017,07,17,03,09,11.70
2017,07,17,03,10,11.70
2017,07,17,03,11,11.60
2017,07,17,03,12,11.60
2017,07,17,03,13,11.60
2017,07,17,03,14,11.60
2017,07,17,03,15,11.60
2017,07,17,03,16,11.60
2017,07,17,03,17,11.50
2017,07,17,03,18,11.50
2017,07,17,03,19,11.50
2017,07,17,03,20,11.50
2017,07,17,03,21,11.40
2017,07,17,03,22,11.40
2017,07,17,03,23,11.40
2017,07,17,03,24,11.40
2017,07,17,03,25,11.40
2017,07,17,03,26,11.40
2017,07,17,03,27,11.40
2017,07,17,03,28,11.40
2017,07,17,03,29,11.40
2017,07,17,03,30,11.40
2017,07,17,03,31,11.30
2017,07,17,03,32,11.30
2017,07,17,03,33,11.30
2017,07,17,03,34,11.30
2017,07,17,03,35,11.20
2017,07,17,03,36,11.20
2017,07,17,03,37,11.20
2017,07,17,03,38,11.20
2017,07,17,03,39,11.20
2017,07,17,03,40,11.20
2017,07,17,03,41,11.10
2017,07,17,03,42,11.10
2017,07,17,03,43,11.10
2017,07,17,03,44,11.10
2017,07,17,03,45,11.10
2017,07,17,03,46,11.10
2017,07,17,03,47,11.10
2017,07,17,03,48,11.10
2017,07,17,03,49,11.10
2017,07,17,03,50,11.10
2017,07,17,03,51,11.10
2017,07,17,03,52,11.10
2017,07,17,03,53,11.10
2017,07,17,03,54,11.10
2017,07,17,03,55,11.10
2017,07,17,03,56,11.10
2017,07,17,03,57,11.10
2017,07,17,03,58,11.00
2017,07,17,03,59,11.00
2017,07,17,04,00,11.00
2017,07,17,04,01,11.00
2017,07,17,04,02,10.90
2017,07,17,04,03,10.90
2017,07,17,04,04,10.90
2017,07,17,04,05,10.90
2017,07,17,04,06,10.90
2017,07,17,04,07,10.80
2017,07,17,04,08,10.80
2017,07,17,04,09,10.80
2017,07,17,04,10,10.80
2017,07,17,04,11,10.80
2017,07,17,04,12,10.80
2017,07,17,04,13,10.80
2017,07,17,04,14,10.80
2017,07,17,04,15,10.80
2017,07,17,04,16,10.80
2017,07,17,04,17,10.80
2017,07,17,04,18,10.70
2017,07,17,04,19,10.70
2017,07,17,04,20,10.70
2017,07,17,04,21,10.70
2017,07,17,04,22,10.70
2017,07,17,04,23,10.70
2017,07,17,04,24,10.60
2017,07,17,04,25,10.60
2017,07,17,04,26,10.60
2017,07,17,04,27,10.60
2017,07,17,04,28,10.60
2017,07,17,04,29,10.60
2017,07,17,04,30,10.60
2017,07,17,04,31,10.60
2017,07,17,04,32,10.60
2017,07,17,04,33,10.60
2017,07,17,04,34,10.60
2017,07,17,04,35,10.60
2017,07,17,04,36,10.60
2017,07,17,04,37,10.60
2017,07,17,04,38,10.60
2017,07,17,04,39,10.60
2017,07,17,04,40,10.60
2017,07,17,04,41,10.60
2017,07,17,04,42,10.60
2017,07,17,04,43,10.60
2017,07,17,04,44,10.70
2017,07,17,04,45,10.70
2017,07,17,04,46,10.70
2017,07,17,04,47,10.70
2017,07,17,04,48,10.80
2017,07,17,04,49,10.80
2017,07,17,04,50,10.80
2017,07,17,04,51,10.80
2017,07,17,04,52,10.80
2017,07,17,04,53,10.80
2017,07,17,04,54,10.80
2017,07,17,04,55,10.80
2017,07,17,04,56,10.80
2017,07,17,04,57,10.80
2017,07,17,04,58,10.80
2017,07,17,04,59,10.70
2017,07,17,05,00,10.70
2017,07,17,05,01,10.70
2017,07,17,05,02,10.70
2017,07,17,05,03,10.70
2017,07,17,05,04,10.70
2017,07,17,05,05,10.70
2017,07,17,05,06,10.70
2017,07,17,05,07,10.70
2017,07,17,05,08,10.70
2017,07,17,05,09,10.70
2017,07,17,05,10,10.60
2017,07,17,05,11,10.60
2017,07,17,05,12,10.60
2017,07,17,05,13,10.60
2017,07,17,05,14,10.60
2017,07,17,05,15,10.60
2017,07,17,05,16,10.60
2017,07,17,05,17,10.60
2017,07,17,05,18,10.60
2017,07,17,05,19,10.60
2017,07,17,05,20,10.50
2017,07,17,05,21,10.50
2017,07,17,05,22,10.50
2017,07,17,05,23,10.50
2017,07,17,05,24,10.50
2017,07,17,05,25,10.40
2017,07,17,05,26,10.40
2017,07,17,05,27,10.40
2017,07,17,05,28,10.40
2017,07,17,05,29,10.40
2017,07,17,05,30,10.40
2017,07,17,05,31,10.40
2017,07,17,05,32,10.40
2017,07,17,05,33,10.40
2017,07,17,05,34,10.40
2017,07,17,05,35,10.40
2017,07,17,05,36,10.40
2017,07,17,05,37,10.40
2017,07,17,05,38,10.40
2017,07,17,05,39,10.40
2017,07,17,05,40,10.40
2017,07,17,05,41,10.40
2017,07,17,05,42,10.40
2017,07,17,05,43,10.30
2017,07,17,05,44,10.30
2017,07,17,05,45,10.30
2017,07,17,05,46,10.30
2017,07,17,05,47,10.30
2017,07,17,05,48,10.30
2017,07,17,05,49,10.30
2017,07,17,05,50,10.30
2017,07,17,05,51,10.30
2017,07,17,05,52,10.30
2017,07,17,05,53,10.30
2017,07,17,05,54,10.30
2017,07,17,05,55,10.20
2017,07,17,05,56,10.20
2017,07,17,05,57,10.20
2017,07,17,05,58,10.20
2017,07,17,05,59,10.20
2017,07,17,06,00,10.20
2017,07,17,06,01,10.20
2017,07,17,06,02,10.20
2017,07,17,06,03,10.20
2017,07,17,06,04,10.20
2017,07,17,06,05,10.20
2017,07,17,06,06,10.20
2017,07,17,06,07,10.20
2017,07,17,06,08,10.20
2017,07,17,06,09,10.20
2017,07,17,06,10,10.20
2017,07,17,06,11,10.20
2017,07,17,06,12,10.20
2017,07,17,06,13,10.30
2017,07,17,06,14,10.30
2017,07,17,06,15,10.30
2017,07,17,06,16,10.30
2017,07,17,06,17,10.30
2017,07,17,06,18,10.30
2017,07,17,06,19,10.30
2017,07,17,06,20,10.30
2017,07,17,06,21,10.40
2017,07,17,06,22,10.40
2017,07,17,06,23,10.40
2017,07,17,06,24,10.40
2017,07,17,06,25,10.50
2017,07,17,06,26,10.50
2017,07,17,06,27,10.50
2017,07,17,06,28,10.50
2017,07,17,06,29,10.60
2017,07,17,06,30,10.60
2017,07,17,06,31,10.60
2017,07,17,06,32,10.70
2017,07,17,06,33,10.70
2017,07,17,06,34,10.70
2017,07,17,06,35,10.80
2017,07,17,06,36,10.80
2017,07,17,06,37,10.80
2017,07,17,06,38,10.80
2017,07,17,06,39,10.90
2017,07,17,06,40,10.90
2017,07,17,06,41,11.00
2017,07,17,06,42,11.00
2017,07,17,06,43,11.10
2017,07,17,06,44,11.10
2017,07,17,06,45,11.20
2017,07,17,06,46,11.20
2017,07,17,06,47,11.20
2017,07,17,06,48,11.30
2017,07,17,06,49,11.30
2017,07,17,06,50,11.40
2017,07,17,06,51,11.40
2017,07,17,06,52,11.50
2017,07,17,06,53,11.60
2017,07,17,06,54,11.60
2017,07,17,06,55,11.70
2017,07,17,06,56,11.70
2017,07,17,06,57,11.80
2017,07,17,06,58,11.80
2017,07,17,06,59,11.90
2017,07,17,07,00,12.00
2017,07,17,07,01,12.00
2017,07,17,07,02,12.10
2017,07,17,07,03,12.20
2017,07,17,07,04,12.20
2017,07,17,07,05,12.30
2017,07,17,07,06,12.40
2017,07,17,07,07,12.50
2017,07,17,07,08,12.60
2017,07,17,07,09,12.70
2017,07,17,07,10,12.80
2017,07,17,07,11,12.90
2017,07,17,07,12,13.00
2017,07,17,07,13,13.10
2017,07,17,07,14,13.10
2017,07,17,07,15,13.20
2017,07,17,07,16,13.30
2017,07,17,07,17,13.40
2017,07,17,07,18,13.50
2017,07,17,07,19,13.60
2017,07,17,07,20,13.70
2017,07,17,07,21,13.80
2017,07,17,07,22,13.90
2017,07,17,07,23,14.00
2017,07,17,07,24,14.10
2017,07,17,07,25,14.20
2017,07,17,07,26,14.30
2017,07,17,07,27,14.40
2017,07,17,07,28,14.50
2017,07,17,07,29,14.60
2017,07,17,07,30,14.60
2017,07,17,07,31,14.70
2017,07,17,07,32,14.70
2017,07,17,07,33,14.80
2017,07,17,07,34,14.90
2017,07,17,07,35,15.00
2017,07,17,07,36,15.00
2017,07,17,07,37,15.00
2017,07,17,07,38,15.00
2017,07,17,07,39,15.00
2017,07,17,07,40,15.10
2017,07,17,07,41,15.20
2017,07,17,07,42,15.40
2017,07,17,07,43,15.60
2017,07,17,07,44,15.80
2017,07,17,07,45,16.00
2017,07,17,07,46,16.10
2017,07,17,07,47,16.20
2017,07,17,07,48,16.30
2017,07,17,07,49,16.40
2017,07,17,07,50,16.50
2017,07,17,07,51,16.60
2017,07,17,07,52,16.70
2017,07,17,07,53,16.80
2017,07,17,07,54,16.90
2017,07,17,07,55,17.00
2017,07,17,07,56,17.10
2017,07,17,07,57,17.10
2017,07,17,07,58,17.20
2017,07,17,07,59,17.20
2017,07,17,08,00,17.30
2017,07,17,08,01,17.40
2017,07,17,08,02,17.40
2017,07,17,08,03,17.50
2017,07,17,08,04,17.50
2017,07,17,08,05,17.60
2017,07,17,08,06,17.60
2017,07,17,08,07,17.70
2017,07,17,08,08,17.70
2017,07,17,08,09,17.80
2017,07,17,08,10,17.80
2017,07,17,08,11,17.90
2017,07,17,08,12,17.90
2017,07,17,08,13,18.00
2017,07,17,08,14,17.90
2017,07,17,08,15,17.90
2017,07,17,08,16,17.80
2017,07,17,08,17,17.70
2017,07,17,08,18,17.70
2017,07,17,08,19,17.70
2017,07,17,08,20,17.70
2017,07,17,08,21,17.70
2017,07,17,08,22,17.80
2017,07,17,08,23,17.70
2017,07,17,08,24,17.70
2017,07,17,08,25,17.70
2017,07,17,08,26,17.70
2017,07,17,08,27,17.70
2017,07,17,08,28,17.70
2017,07,17,08,29,17.60
2017,07,17,08,30,17.60
2017,07,17,08,31,17.60
2017,07,17,08,32,17.50
2017,07,17,08,33,17.40
2017,07,17,08,34,17.40
2017,07,17,08,35,17.40
2017,07,17,08,36,17.40
2017,07,17,08,37,17.40
2017,07,17,08,38,17.40
2017,07,17,08,39,17.30
2017,07,17,08,40,17.40
2017,07,17,08,41,17.40
2017,07,17,08,42,17.40
2017,07,17,08,43,17.50
2017,07,17,08,44,17.60
2017,07,17,08,45,17.70
2017,07,17,08,46,17.80
2017,07,17,08,47,18.00
2017,07,17,08,48,18.10
2017,07,17,08,49,18.00
2017,07,17,08,50,18.00
2017,07,17,08,51,18.10
2017,07,17,08,52,18.10
2017,07,17,08,53,18.10
2017,07,17,08,54,18.00
2017,07,17,08,55,18.00
2017,07,17,08,56,17.90
2017,07,17,08,57,17.80
2017,07,17,08,58,17.80
2017,07,17,08,59,17.90
2017,07,17,09,00,17.90
2017,07,17,09,01,17.90
2017,07,17,09,02,17.80
2017,07,17,09,03,17.70
2017,07,17,09,04,17.70
2017,07,17,09,05,17.80
2017,07,17,09,06,17.90
2017,07,17,09,07,17.90
2017,07,17,09,08,18.00
2017,07,17,09,09,18.10
2017,07,17,09,10,18.20
2017,07,17,09,11,18.30
2017,07,17,09,12,18.40
2017,07,17,09,13,18.40
2017,07,17,09,14,18.50
2017,07,17,09,15,18.60
2017,07,17,09,16,18.60
2017,07,17,09,17,18.60
2017,07,17,09,18,18.60
2017,07,17,09,19,18.60
2017,07,17,09,20,18.50
2017,07,17,09,21,18.40
2017,07,17,09,22,18.40
2017,07,17,09,23,18.40
2017,07,17,09,24,18.50
2017,07,17,09,25,18.50
2017,07,17,09,26,18.60
2017,07,17,09,27,18.70
2017,07,17,09,28,18.80
2017,07,17,09,29,18.80
2017,07,17,09,30,18.90
2017,07,17,09,31,18.80
2017,07,17,09,32,18.80
2017,07,17,09,33,18.80
2017,07,17,09,34,18.80
2017,07,17,09,35,18.80
2017,07,17,09,36,18.90
2017,07,17,09,37,18.90
2017,07,17,09,38,18.90
2017,07,17,09,39,18.90
2017,07,17,09,40,18.90
2017,07,17,09,41,18.90
2017,07,17,09,42,18.80
2017,07,17,09,43,18.80
2017,07,17,09,44,18.80
2017,07,17,09,45,18.80
2017,07,17,09,46,18.70
2017,07,17,09,47,18.60
2017,07,17,09,48,18.60
2017,07,17,09,49,18.70
2017,07,17,09,50,18.80
2017,07,17,09,51,18.90
2017,07,17,09,52,19.00
2017,07,17,09,53,19.10
2017,07,17,09,54,19.30
2017,07,17,09,55,19.30
2017,07,17,09,56,19.30
2017,07,17,09,57,19.20
2017,07,17,09,58,19.20
2017,07,17,09,59,19.00
2017,07,17,10,00,19.00
2017,07,17,10,01,18.90
2017,07,17,10,02,18.90
2017,07,17,10,03,19.00
2017,07,17,10,04,19.20
2017,07,17,10,05,19.30
2017,07,17,10,06,19.40
2017,07,17,10,07,19.50
2017,07,17,10,08,19.70
2017,07,17,10,09,19.80
2017,07,17,10,10,19.90
2017,07,17,10,11,20.00
2017,07,17,10,12,20.00
2017,07,17,10,13,20.00
2017,07,17,10,14,20.00
2017,07,17,10,15,19.90
2017,07,17,10,16,19.80
2017,07,17,10,17,19.70
2017,07,17,10,18,19.70
2017,07,17,10,19,19.80
2017,07,17,10,20,19.80
2017,07,17,10,21,19.70
2017,07,17,10,22,19.80
2017,07,17,10,23,19.80
2017,07,17,10,24,19.80
2017,07,17,10,25,19.80
2017,07,17,10,26,19.80
2017,07,17,10,27,19.80
2017,07,17,10,28,19.80
2017,07,17,10,29,19.90
2017,07,17,10,30,19.90
2017,07,17,10,31,20.00
2017,07,17,10,32,20.00
2017,07,17,10,33,19.90
2017,07,17,10,34,19.90
2017,07,17,10,35,19.80
2017,07,17,10,36,19.80
2017,07,17,10,37,19.90
2017,07,17,10,38,19.90
2017,07,17,10,39,19.70
2017,07,17,10,40,19.60
2017,07,17,10,41,19.50
2017,07,17,10,42,19.40
2017,07,17,10,43,19.30
2017,07,17,10,44,19.30
2017,07,17,10,45,19.30
2017,07,17,10,46,19.30
2017,07,17,10,47,19.30
2017,07,17,10,48,19.30
2017,07,17,10,49,19.10
2017,07,17,10,50,18.80
2017,07,17,10,51,18.70
2017,07,17,10,52,18.70
2017,07,17,10,53,18.70
2017,07,17,10,54,18.70
2017,07,17,10,55,18.70
2017,07,17,10,56,18.70
2017,07,17,10,57,18.70
2017,07,17,10,58,18.60
2017,07,17,10,59,18.40
2017,07,17,11,00,18.30
2017,07,17,11,01,18.30
2017,07,17,11,02,18.40
2017,07,17,11,03,18.50
2017,07,17,11,04,18.50
2017,07,17,11,05,18.60
2017,07,17,11,06,18.60
2017,07,17,11,07,18.60
2017,07,17,11,08,18.70
2017,07,17,11,09,18.70
2017,07,17,11,10,18.60
2017,07,17,11,11,18.50
2017,07,17,11,12,18.40
2017,07,17,11,13,18.40
2017,07,17,11,14,18.40
2017,07,17,11,15,18.40
2017,07,17,11,16,18.50
2017,07,17,11,17,18.50
2017,07,17,11,18,18.50
2017,07,17,11,19,18.50
2017,07,17,11,20,18.60
2017,07,17,11,21,18.50
2017,07,17,11,22,18.40
2017,07,17,11,23,18.40
2017,07,17,11,24,18.50
2017,07,17,11,25,18.60
2017,07,17,11,26,18.70
2017,07,17,11,27,18.80
2017,07,17,11,28,18.80
2017,07,17,11,29,18.80
2017,07,17,11,30,18.80
2017,07,17,11,31,18.70
2017,07,17,11,32,18.80
2017,07,17,11,33,18.90
2017,07,17,11,34,18.90
2017,07,17,11,35,18.90
2017,07,17,11,36,18.80
2017,07,17,11,37,18.80
2017,07,17,11,38,18.70
2017,07,17,11,39,18.70
2017,07,17,11,40,18.80
2017,07,17,11,41,18.90
2017,07,17,11,42,19.00
2017,07,17,11,43,19.00
2017,07,17,11,44,19.00
2017,07,17,11,45,19.00
2017,07,17,11,46,19.00
2017,07,17,11,47,19.10
2017,07,17,11,48,19.10
2017,07,17,11,49,19.20
2017,07,17,11,50,19.30
2017,07,17,11,51,19.30
2017,07,17,11,52,19.20
2017,07,17,11,53,19.20
2017,07,17,11,54,19.20
2017,07,17,11,55,19.30
2017,07,17,11,56,19.40
2017,07,17,11,57,19.40
2017,07,17,11,58,19.40
2017,07,17,11,59,19.40
2017,07,17,12,00,19.40
2017,07,17,12,01,19.40
2017,07,17,12,02,19.40
2017,07,17,12,03,19.40
2017,07,17,12,04,19.20
2017,07,17,12,05,19.20
2017,07,17,12,06,19.30
2017,07,17,12,07,19.20
2017,07,17,12,08,19.20
2017,07,17,12,09,19.30
2017,07,17,12,10,19.30
2017,07,17,12,11,19.30
2017,07,17,12,12,19.30
2017,07,17,12,13,19.40
2017,07,17,12,14,19.50
2017,07,17,12,15,19.50
2017,07,17,12,16,19.50
2017,07,17,12,17,19.30
2017,07,17,12,18,19.30
2017,07,17,12,19,19.20
2017,07,17,12,20,19.30
2017,07,17,12,21,19.40
2017,07,17,12,22,19.60
2017,07,17,12,23,19.70
2017,07,17,12,24,19.80
2017,07,17,12,25,19.80
2017,07,17,12,26,19.80
2017,07,17,12,27,19.80
2017,07,17,12,28,19.80
2017,07,17,12,29,19.70
2017,07,17,12,30,19.60
2017,07,17,12,31,19.70
2017,07,17,12,32,19.60
2017,07,17,12,33,19.40
2017,07,17,12,34,19.40
2017,07,17,12,35,19.40
2017,07,17,12,36,19.30
2017,07,17,12,37,19.40
2017,07,17,12,38,19.50
2017,07,17,12,39,19.50
2017,07,17,12,40,19.50
2017,07,17,12,41,19.50
2017,07,17,12,42,19.60
2017,07,17,12,43,19.70
2017,07,17,12,44,19.80
2017,07,17,12,45,19.90
2017,07,17,12,46,19.80
2017,07,17,12,47,19.70
2017,07,17,12,48,19.60
2017,07,17,12,49,19.60
2017,07,17,12,50,19.60
2017,07,17,12,51,19.60
2017,07,17,12,52,19.60
2017,07,17,12,53,19.50
2017,07,17,12,54,19.50
2017,07,17,12,55,19.50
2017,07,17,12,56,19.70
2017,07,17,12,57,19.80
2017,07,17,12,58,20.00
2017,07,17,12,59,20.20
2017,07,17,13,00,20.30
2017,07,17,13,01,20.30
2017,07,17,13,02,20.40
2017,07,17,13,03,20.50
2017,07,17,13,04,20.70
2017,07,17,13,05,20.80
2017,07,17,13,06,20.80
2017,07,17,13,07,20.80
2017,07,17,13,08,20.80
2017,07,17,13,09,20.80
2017,07,17,13,10,20.60
2017,07,17,13,11,20.40
2017,07,17,13,12,20.30
2017,07,17,13,13,20.30
2017,07,17,13,14,20.30
2017,07,17,13,15,20.40
2017,07,17,13,16,20.30
2017,07,17,13,17,20.30
2017,07,17,13,18,20.40
2017,07,17,13,19,20.30
2017,07,17,13,20,20.40
2017,07,17,13,21,20.50
2017,07,17,13,22,20.70
2017,07,17,13,23,20.90
2017,07,17,13,24,21.00
2017,07,17,13,25,20.90
2017,07,17,13,26,20.80
2017,07,17,13,27,20.80
2017,07,17,13,28,20.50
2017,07,17,13,29,20.30
2017,07,17,13,30,20.20
2017,07,17,13,31,20.30
2017,07,17,13,32,20.30
2017,07,17,13,33,20.40
2017,07,17,13,34,20.40
2017,07,17,13,35,20.40
2017,07,17,13,36,20.40
2017,07,17,13,37,20.40
2017,07,17,13,38,20.40
2017,07,17,13,39,20.50
2017,07,17,13,40,20.60
2017,07,17,13,41,20.70
2017,07,17,13,42,20.70
2017,07,17,13,43,20.40
2017,07,17,13,44,20.30
2017,07,17,13,45,20.20
2017,07,17,13,46,20.20
2017,07,17,13,47,20.20
2017,07,17,13,48,20.20
2017,07,17,13,49,20.30
2017,07,17,13,50,20.50
2017,07,17,13,51,20.60
2017,07,17,13,52,20.80
2017,07,17,13,53,20.90
2017,07,17,13,54,21.10
2017,07,17,13,55,21.20
2017,07,17,13,56,21.30
2017,07,17,13,57,21.20
2017,07,17,13,58,21.20
2017,07,17,13,59,20.90
2017,07,17,14,00,20.70
2017,07,17,14,01,20.70
2017,07,17,14,02,20.70
2017,07,17,14,03,20.80
2017,07,17,14,04,20.80
2017,07,17,14,05,20.90
2017,07,17,14,06,20.90
2017,07,17,14,07,21.00
2017,07,17,14,08,21.20
2017,07,17,14,09,21.30
2017,07,17,14,10,21.20
2017,07,17,14,11,21.10
2017,07,17,14,12,21.00
2017,07,17,14,13,20.90
2017,07,17,14,14,20.90
2017,07,17,14,15,20.90
2017,07,17,14,16,20.90
2017,07,17,14,17,20.90
2017,07,17,14,18,20.90
2017,07,17,14,19,21.00
2017,07,17,14,20,21.20
2017,07,17,14,21,21.30
2017,07,17,14,22,21.40
2017,07,17,14,23,21.50
2017,07,17,14,24,21.60
2017,07,17,14,25,21.50
2017,07,17,14,26,21.40
2017,07,17,14,27,21.30
2017,07,17,14,28,21.20
2017,07,17,14,29,21.20
2017,07,17,14,30,21.00
2017,07,17,14,31,21.00
2017,07,17,14,32,20.90
2017,07,17,14,33,21.00
2017,07,17,14,34,21.10
2017,07,17,14,35,21.00
2017,07,17,14,36,20.90
2017,07,17,14,37,21.00
2017,07,17,14,38,21.00
2017,07,17,14,39,21.00
2017,07,17,14,40,20.90
2017,07,17,14,41,20.90
2017,07,17,14,42,20.90
2017,07,17,14,43,20.80
2017,07,17,14,44,20.80
2017,07,17,14,45,20.70
2017,07,17,14,46,20.70
2017,07,17,14,47,20.70
2017,07,17,14,48,20.70
2017,07,17,14,49,20.80
2017,07,17,14,50,21.00
2017,07,17,14,51,21.20
2017,07,17,14,52,21.30
2017,07,17,14,53,21.30
2017,07,17,14,54,21.30
2017,07,17,14,55,21.30
2017,07,17,14,56,21.40
2017,07,17,14,57,21.40
2017,07,17,14,58,21.40
2017,07,17,14,59,21.30
2017,07,17,15,00,21.20
2017,07,17,15,01,21.20
2017,07,17,15,02,21.20
2017,07,17,15,03,21.20
2017,07,17,15,04,21.20
2017,07,17,15,05,21.30
2017,07,17,15,06,21.40
2017,07,17,15,07,21.50
2017,07,17,15,08,21.50
2017,07,17,15,09,21.40
2017,07,17,15,10,21.30
2017,07,17,15,11,21.40
2017,07,17,15,12,21.60
2017,07,17,15,13,21.60
2017,07,17,15,14,21.40
2017,07,17,15,15,21.40
2017,07,17,15,16,21.40
2017,07,17,15,17,21.40
2017,07,17,15,18,21.50
2017,07,17,15,19,21.40
2017,07,17,15,20,21.30
2017,07,17,15,21,21.30
2017,07,17,15,22,21.30
2017,07,17,15,23,21.20
2017,07,17,15,24,21.10
2017,07,17,15,25,21.10
2017,07,17,15,26,21.10
2017,07,17,15,27,21.20
2017,07,17,15,28,21.10
2017,07,17,15,29,21.10
2017,07,17,15,30,21.20
2017,07,17,15,31,21.20
2017,07,17,15,32,21.20
2017,07,17,15,33,21.20
2017,07,17,15,34,21.20
2017,07,17,15,35,21.20
2017,07,17,15,36,21.20
2017,07,17,15,37,21.20
2017,07,17,15,38,21.20
2017,07,17,15,39,21.10
2017,07,17,15,40,21.00
2017,07,17,15,41,20.90
2017,07,17,15,42,20.90
2017,07,17,15,43,20.80
2017,07,17,15,44,20.70
2017,07,17,15,45,20.70
2017,07,17,15,46,20.60
2017,07,17,15,47,20.50
2017,07,17,15,48,20.40
2017,07,17,15,49,20.30
2017,07,17,15,50,20.30
2017,07,17,15,51,20.20
2017,07,17,15,52,20.20
2017,07,17,15,53,20.10
2017,07,17,15,54,20.10
2017,07,17,15,55,20.10
2017,07,17,15,56,20.10
2017,07,17,15,57,20.00
2017,07,17,15,58,19.90
2017,07,17,15,59,19.80
2017,07,17,16,00,19.70
2017,07,17,16,01,19.80
2017,07,17,16,02,19.80
2017,07,17,16,03,19.90
2017,07,17,16,04,19.90
2017,07,17,16,05,20.00
2017,07,17,16,06,20.00
2017,07,17,16,07,20.10
2017,07,17,16,08,20.20
2017,07,17,16,09,20.20
2017,07,17,16,10,20.30
2017,07,17,16,11,20.50
2017,07,17,16,12,20.60
2017,07,17,16,13,20.60
2017,07,17,16,14,20.70
2017,07,17,16,15,20.80
2017,07,17,16,16,20.90
2017,07,17,16,17,21.00
2017,07,17,16,18,21.10
2017,07,17,16,19,21.20
2017,07,17,16,20,21.30
2017,07,17,16,21,21.40
2017,07,17,16,22,21.60
2017,07,17,16,23,21.80
2017,07,17,16,24,22.00
2017,07,17,16,25,22.20
2017,07,17,16,26,22.40
2017,07,17,16,27,22.60
2017,07,17,16,28,22.70
2017,07,17,16,29,22.90
2017,07,17,16,30,23.10
2017,07,17,16,31,23.10
2017,07,17,16,32,23.20
2017,07,17,16,33,23.30
2017,07,17,16,34,23.40
2017,07,17,16,35,23.40
2017,07,17,16,36,23.50
2017,07,17,16,37,23.50
2017,07,17,16,38,23.60
2017,07,17,16,39,23.60
2017,07,17,16,40,23.60
2017,07,17,16,41,23.60
2017,07,17,16,42,23.60
2017,07,17,16,43,23.60
2017,07,17,16,44,23.70
2017,07,17,16,45,23.80
2017,07,17,16,46,23.80
2017,07,17,16,47,23.90
2017,07,17,16,48,24.00
2017,07,17,16,49,24.00
2017,07,17,16,50,24.00
2017,07,17,16,51,24.00
2017,07,17,16,52,24.00
2017,07,17,16,53,24.00
2017,07,17,16,54,23.90
2017,07,17,16,55,23.90
2017,07,17,16,56,24.00
2017,07,17,16,57,24.10
2017,07,17,16,58,24.10
2017,07,17,16,59,24.10
2017,07,17,17,00,23.90
2017,07,17,17,01,23.80
2017,07,17,17,02,23.90
2017,07,17,17,03,24.00
2017,07,17,17,04,24.00
2017,07,17,17,05,24.00
2017,07,17,17,06,23.90
2017,07,17,17,07,23.90
2017,07,17,17,08,23.80
2017,07,17,17,09,23.70
2017,07,17,17,10,23.60
2017,07,17,17,11,23.60
2017,07,17,17,12,23.60
2017,07,17,17,13,23.70
2017,07,17,17,14,23.80
2017,07,17,17,15,23.80
2017,07,17,17,16,23.80
2017,07,17,17,17,23.70
2017,07,17,17,18,23.80
2017,07,17,17,19,23.80